Location: Maccacari
(45.1333°N, 11.1333°E)
Time: 02:19:43
(UTC+00:00)

Vanguard 2 - Pass Details

Date: 21 January 2021
Orbit: 552 x 2938 km, 32.9° (Epoch: 05 March)

Event Time Altitude Azimuth Distance (km) Brightness Sun altitude
Rises 20:03:30 0° 255° (WSW) 3,280 11.4 -41.2°
Reaches altitude 10° 20:06:02 10° 240° (WSW) 2,584 10.6 -41.6°
Enters shadow 20:07:07 15° 232° (SW) 2,366 10.3 -41.8°
Maximum altitude 20:10:59 25° 187° (S) 2,188 - -42.4°
Drops below altitude 10° 20:18:02 10° 138° (SE) 3,819 - -43.6°
Sets 20:22:47 0° 128° (SE) 5,275 - -44.4°
